,,PA_Meas_PMT16A,,PR_Meas_QMR101_102,,RH_Meas_QMH101,,SR_Meas_QMS101,,TA_Meas_QMH101,,GenWind,,GenWind,
time,status,PA,status,PR,status,RH,status,SR,status,TA,status,DirAvg,status,SpdAvg,
2016-04-13, 07:00:04,INVALID - VALUE NOT AVAILABLE,0,INVALID - VALUE NOT AVAILABLE,0,INVALID - VALUE NOT AVAILABLE,0,INVALID - VALUE NOT AVAILABLE,0,INVALID - VALUE NOT AVAILABLE,0,INVALID,360,INVALID,0,
2016-04-13, 07:02:04,VALID,917.687,VALID,0,INVALID,110.494,VALID,92.9366,VALID,19.8393,VALID,141,VALID,0,
2016-04-13, 07:03:04,VALID,917.689,VALID,0,INVALID,110.517,VALID,101.424,VALID,19.9173,VALID,141,VALID,0,
2016-04-13, 07:04:04,VALID,917.694,VALID,0,INVALID,110.471,VALID,110.45,VALID,19.9563,VALID,141,VALID,0,
2016-04-13, 07:05:04,VALID,917.678,VALID,0,INVALID,110.379,VALID,106.367,VALID,20.0538,VALID,142,VALID,0,
2016-04-13, 07:06:04,VALID,917.711,VALID,0,INVALID,110.28,VALID,92.1845,VALID,20.1123,VALID,147,VALID,0,
2016-04-13, 07:14:04,VALID,917.833,VALID,0,INVALID,109.381,VALID,75.4237,VALID,20.2083,VALID,146,VALID,0,
2016-04-13, 07:20:04,VALID,917.88,VALID,0,INVALID,109.663,VALID,87.672,VALID,20.2489,VALID,129,VALID,0,
2016-04-13, 07:21:04,VALID,917.868,VALID,0,INVALID,109.632,VALID,90.0357,VALID,20.3089,VALID,127,VALID,0,
2016-04-13, 07:22:04,VALID,917.831,VALID,0,INVALID,109.602,VALID,96.8045,VALID,20.3674,VALID,136,VALID,0,
2016-04-13, 07:23:04,VALID,917.853,VALID,0,INVALID,109.503,VALID,108.838,VALID,20.3659,VALID,136,VALID,0,
2016-04-13, 07:24:04,VALID,917.848,VALID,0,INVALID,109.266,VALID,115.499,VALID,20.3854,VALID,136,VALID,0,
2016-04-13, 07:25:04,VALID,917.859,VALID,0,INVALID,109.175,VALID,133.979,VALID,20.4845,VALID,136,VALID,0,
2016-04-13, 07:26:04,VALID,917.857,VALID,0,INVALID,109.19,VALID,163.955,VALID,20.5219,VALID,136,VALID,0,
2016-04-13, 07:27:04,VALID,917.858,VALID,0,INVALID,109.068,VALID,168.038,VALID,20.5999,VALID,140,VALID,0,
2016-04-13, 07:28:04,VALID,917.841,VALID,0,VALID,104,VALID,176.096,VALID,20.6585,VALID,141,VALID,0,
2016-04-13, 07:29:04,VALID,917.865,VALID,0,VALID,104,VALID,192.964,VALID,20.756,VALID,142,VALID,0,
2016-04-13, 07:30:04,VALID,917.888,VALID,0,VALID,104,VALID,193.502,VALID,20.873,VALID,142,VALID,0,
2016-04-13, 07:31:04,VALID,917.882,VALID,0,VALID,104,VALID,203.923,VALID,20.9901,VALID,142,VALID,0,
2016-04-13, 07:32:04,VALID,917.906,VALID,0,VALID,104,VALID,219.073,VALID,21.1266,VALID,142,VALID,0,
2016-04-13, 07:33:04,VALID,917.914,VALID,0,VALID,104,VALID,213.7,VALID,21.2242,VALID,142,VALID,0,
2016-04-13, 07:34:04,VALID,917.948,VALID,0,VALID,104,VALID,214.56,VALID,21.3998,VALID,141,VALID,0,
2016-04-13, 07:35:04,VALID,917.975,VALID,0,VALID,104,VALID,232.932,VALID,21.5754,VALID,136,VALID,0,
2016-04-13, 07:36:04,VALID,918.009,VALID,0,VALID,104,VALID,251.95,VALID,21.7705,VALID,106,VALID,0,
2016-04-13, 07:37:04,VALID,918.038,VALID,0,VALID,104,VALID,253.454,VALID,21.9851,VALID,119,VALID,0,
2016-04-13, 07:38:04,VALID,918.051,VALID,0,VALID,103.976,VALID,247.974,VALID,22.2193,VALID,119,VALID,0,
2016-04-13, 07:39:04,VALID,918.06,VALID,0,VALID,103.015,VALID,246.792,VALID,22.473,VALID,119,VALID,0,
2016-04-13, 07:40:04,VALID,918.069,VALID,0,VALID,102.154,VALID,243.139,VALID,22.725,VALID,119,VALID,0,
2016-04-13, 07:41:04,VALID,918.084,VALID,0,VALID,101.147,VALID,244.429,VALID,22.9397,VALID,119,VALID,0,
2016-04-13, 07:42:04,VALID,918.117,VALID,0,VALID,100.248,VALID,245.718,VALID,23.1544,VALID,119,VALID,0,
2016-04-13, 07:43:04,VALID,918.143,VALID,0,VALID,97.7932,VALID,250.983,VALID,23.213,VALID,156,VALID,0,
2016-04-13, 07:44:04,VALID,918.121,VALID,0,VALID,82.0356,VALID,254.85,VALID,23.1544,VALID,158,VALID,0,
2016-04-13, 07:45:04,VALID,918.147,VALID,0,VALID,81.4943,VALID,254.85,VALID,22.8989,VALID,154,VALID,0,
2016-04-13, 07:46:04,VALID,918.179,VALID,0,VALID,84.719,VALID,273.867,VALID,22.725,VALID,155,VALID,0,
2016-04-13, 07:47:04,VALID,918.161,VALID,0,VALID,94.0196,VALID,272.148,VALID,22.6665,VALID,154,VALID,0,
2016-04-13, 07:48:04,VALID,918.153,VALID,0,VALID,96.5658,VALID,266.454,VALID,22.7055,VALID,154,VALID,0,
2016-04-13, 07:49:04,VALID,918.134,VALID,0,VALID,97.6712,VALID,272.471,VALID,22.7641,VALID,152,VALID,0,
2016-04-13, 07:50:04,VALID,918.144,VALID,0,VALID,100.004,VALID,298.794,VALID,22.9185,VALID,151,VALID,0,
2016-04-13, 07:51:04,VALID,918.168,VALID,0,VALID,93.5698,VALID,309.538,VALID,23.1527,VALID,151,VALID,0,
2016-04-13, 07:52:04,VALID,918.192,VALID,0,VALID,81.3952,VALID,306.637,VALID,23.3691,VALID,151,VALID,0,
2016-04-13, 07:53:04,VALID,918.205,VALID,0,VALID,79.3064,VALID,306.959,VALID,23.5448,VALID,151,VALID,0,
2016-04-13, 07:54:04,VALID,918.205,VALID,0,VALID,80.4575,VALID,168.79,VALID,23.8767,VALID,151,VALID,0,
2016-04-13, 07:55:04,VALID,918.214,VALID,0,VALID,77.736,VALID,152.244,VALID,24.111,VALID,151,VALID,0,
2016-04-13, 07:56:04,VALID,918.253,VALID,0,VALID,76.44,VALID,155.682,VALID,24.3825,VALID,151,VALID,0,
2016-04-13, 07:57:04,VALID,918.244,VALID,0,VALID,71.8278,VALID,198.981,VALID,24.6577,VALID,151,VALID,0,
2016-04-13, 07:58:04,VALID,918.238,VALID,0,VALID,70.0211,VALID,228.85,VALID,24.773,VALID,151,VALID,0,
2016-04-13, 07:59:04,VALID,918.244,VALID,0,VALID,70.509,VALID,343.812,VALID,24.9311,VALID,151,VALID,0,
2016-04-13, 08:00:04,VALID,918.198,VALID,0,VALID,69.0605,VALID,340.374,VALID,25.1441,VALID,151,VALID,0,
2016-04-13, 08:01:04,VALID,918.217,VALID,0,VALID,67.8332,VALID,331.993,VALID,25.3198,VALID,152,VALID,0,
2016-04-13, 08:02:04,VALID,918.22,VALID,0,VALID,67.8103,VALID,333.068,VALID,25.3589,VALID,165,VALID,0,
2016-04-13, 08:03:04,VALID,918.256,VALID,0,VALID,68.1152,VALID,337.15,VALID,25.1636,VALID,165,VALID,0,
2016-04-13, 08:04:04,VALID,918.262,VALID,0,VALID,71.3399,VALID,340.266,VALID,25.064,VALID,131,VALID,0,
2016-04-13, 08:05:04,VALID,918.275,VALID,0,VALID,70.6843,VALID,306.744,VALID,25.0855,VALID,87,VALID,0,
2016-04-13, 08:06:04,VALID,918.273,VALID,0,VALID,68.9767,VALID,258.611,VALID,24.8297,VALID,58,VALID,0,
2016-04-13, 08:07:04,VALID,918.3,VALID,0,VALID,72.3462,VALID,238.197,VALID,24.6363,VALID,58,VALID,0,
2016-04-13, 08:08:04,VALID,918.256,VALID,0,VALID,74.3893,VALID,231.751,VALID,24.5368,VALID,58,VALID,0,
2016-04-13, 08:09:04,VALID,918.242,VALID,0,VALID,74.7552,VALID,150.847,VALID,24.5954,VALID,58,VALID,0,
2016-04-13, 08:10:04,VALID,918.252,VALID,0,VALID,72.331,VALID,185.658,VALID,24.5759,VALID,58,VALID,0,
2016-04-13, 08:11:04,VALID,918.293,VALID,0,VALID,72.3386,VALID,272.256,VALID,24.693,VALID,58,VALID,0,
2016-04-13, 08:12:04,VALID,918.274,VALID,0,VALID,72.3996,VALID,315.77,VALID,24.8883,VALID,58,VALID,0,
2016-04-13, 08:13:04,VALID,918.299,VALID,0,VALID,70.57,VALID,326.191,VALID,25.064,VALID,58,VALID,0,
2016-04-13, 08:14:04,VALID,918.294,VALID,0,VALID,68.8547,VALID,284.289,VALID,25.0445,VALID,59,VALID,0,
2016-04-13, 08:15:04,VALID,918.271,VALID,0,VALID,69.2969,VALID,265.595,VALID,24.9664,VALID,59,VALID,0,
2016-04-13, 08:16:04,VALID,918.271,VALID,0,VALID,69.0453,VALID,287.835,VALID,24.7693,VALID,59,VALID,0,
2016-04-13, 08:17:04,VALID,918.27,VALID,0,VALID,70.2345,VALID,311.042,VALID,24.6149,VALID,59,VALID,0,
2016-04-13, 08:18:04,VALID,918.254,VALID,0,VALID,71.157,VALID,328.018,VALID,24.5545,VALID,60,VALID,0,
2016-04-13, 08:19:04,VALID,918.218,VALID,0,VALID,70.1583,VALID,330.167,VALID,24.5387,VALID,59,VALID,0,
2016-04-13, 08:20:04,VALID,918.226,VALID,0,VALID,70.5852,VALID,314.373,VALID,24.4587,VALID,59,VALID,0,
2016-04-13, 08:21:04,VALID,918.216,VALID,0,VALID,71.2103,VALID,343.489,VALID,24.5759,VALID,59,VALID,0,
2016-04-13, 08:22:04,VALID,918.201,VALID,0,VALID,71.5458,VALID,313.298,VALID,24.8102,VALID,58,VALID,0,
2016-04-13, 08:23:04,VALID,918.195,VALID,0,VALID,68.3363,VALID,358.746,VALID,24.9078,VALID,58,VALID,0,
2016-04-13, 08:24:04,VALID,918.214,VALID,0,VALID,67.4215,VALID,280.529,VALID,24.9664,VALID,58,VALID,0,
2016-04-13, 08:25:04,VALID,918.185,VALID,0,VALID,68.2829,VALID,328.34,VALID,24.9274,VALID,59,VALID,0,
2016-04-13, 08:26:04,VALID,918.189,VALID,0,VALID,69.6552,VALID,367.234,VALID,24.9078,VALID,64,VALID,0,
2016-04-13, 08:27:04,VALID,918.189,VALID,0,VALID,70.1735,VALID,360.787,VALID,25.0445,VALID,61,VALID,0,
2016-04-13, 08:28:04,VALID,918.154,VALID,0,VALID,71.744,VALID,381.309,VALID,24.9859,VALID,59,VALID,0,
2016-04-13, 08:29:04,VALID,918.222,VALID,0,VALID,73.3144,VALID,400.326,VALID,24.8492,VALID,58,VALID,0,
2016-04-13, 08:30:04,VALID,918.214,VALID,0,VALID,75.1059,VALID,367.234,VALID,24.9469,VALID,58,VALID,0,
2016-04-13, 08:31:04,VALID,918.199,VALID,0,VALID,72.3081,VALID,413.434,VALID,24.9664,VALID,349,VALID,0.0195313,
2016-04-13, 08:32:04,VALID,918.229,VALID,0,VALID,70.8673,VALID,425.897,VALID,24.7711,VALID,359,VALID,0,
2016-04-13, 08:33:04,VALID,918.191,VALID,0,VALID,73.1772,VALID,433.418,VALID,24.6716,VALID,359,VALID,0,
2016-04-13, 08:34:04,VALID,918.192,VALID,0,VALID,72.8494,VALID,440.509,VALID,24.6716,VALID,7,VALID,0,
2016-04-13, 08:35:04,VALID,918.173,VALID,0,VALID,73.0704,VALID,447.17,VALID,24.6326,VALID,344,VALID,0,
2016-04-13, 08:36:04,VALID,918.202,VALID,0,VALID,73.0247,VALID,454.369,VALID,24.734,VALID,24,VALID,0,
2016-04-13, 08:37:04,VALID,918.209,VALID,0,VALID,74.3131,VALID,461.89,VALID,24.8102,VALID,23,VALID,1.10469,
2016-04-13, 08:38:04,VALID,918.22,VALID,0,VALID,74.1758,VALID,467.691,VALID,24.9878,VALID,352,VALID,0.396484,
2016-04-13, 08:39:04,VALID,918.22,VALID,0,VALID,72.6359,VALID,474.568,VALID,24.9078,VALID,354,VALID,1.60312,
2016-04-13, 08:40:04,VALID,918.213,VALID,0,VALID,73.0247,VALID,475.105,VALID,24.8316,VALID,4,VALID,0,
2016-04-13, 08:41:04,VALID,918.169,VALID,0,VALID,73.0171,VALID,483.7,VALID,24.7711,VALID,27,VALID,1.275,
2016-04-13, 08:42:04,VALID,918.178,VALID,0,VALID,73.848,VALID,485.312,VALID,24.773,VALID,25,VALID,1.73477,
2016-04-13, 08:43:04,VALID,918.18,VALID,0,VALID,75.3727,VALID,498.527,VALID,24.8297,VALID,41,VALID,0.290234,
2016-04-13, 08:44:04,VALID,918.232,VALID,0,VALID,70.387,VALID,501.32,VALID,24.9469,VALID,352,VALID,0,
2016-04-13, 08:45:04,VALID,918.211,VALID,0,VALID,71.7516,VALID,504.973,VALID,25.0055,VALID,277,VALID,0,
2016-04-13, 08:46:04,VALID,918.227,VALID,0,VALID,72.0718,VALID,506.048,VALID,25.1812,VALID,337,VALID,0.853906,
2016-04-13, 08:47:04,VALID,918.212,VALID,0,VALID,71.9574,VALID,510.453,VALID,25.1031,VALID,360,VALID,0.910937,
2016-04-13, 08:48:04,VALID,918.21,VALID,0,VALID,72.2014,VALID,512.602,VALID,25.0445,VALID,31,VALID,0.628125,
2016-04-13, 08:49:04,VALID,918.219,VALID,0,VALID,72.2929,VALID,513.031,VALID,25.0621,VALID,19,VALID,0,
2016-04-13, 08:50:04,VALID,918.22,VALID,0,VALID,72.796,VALID,518.511,VALID,25.2398,VALID,40,VALID,0,
2016-04-13, 08:51:04,VALID,918.223,VALID,0,VALID,71.1417,VALID,522.164,VALID,25.4546,VALID,22,VALID,0,
2016-04-13, 08:52:04,VALID,918.265,VALID,0,VALID,67.4291,VALID,524.743,VALID,25.4917,VALID,294,VALID,0,
2016-04-13, 08:53:04,VALID,918.248,VALID,0,VALID,68.5269,VALID,528.181,VALID,25.648,INVALID,360,VALID,0,
2016-04-13, 08:54:04,VALID,918.233,VALID,0,VALID,67.1013,VALID,531.082,VALID,25.7847,VALID,325,VALID,0,
2016-04-13, 08:55:04,VALID,918.249,VALID,0,VALID,67.7874,VALID,530.115,VALID,25.7847,VALID,282,VALID,0.340234,
2016-04-13, 08:56:04,VALID,918.219,VALID,0,VALID,66.9641,VALID,533.016,VALID,25.9409,VALID,331,VALID,0.00351562,
2016-04-13, 08:57:04,VALID,918.246,VALID,0,VALID,68.7785,VALID,533.875,VALID,25.9995,VALID,11,VALID,0,
2016-04-13, 08:58:04,VALID,918.267,VALID,0,VALID,66.7049,VALID,501.75,VALID,26.1753,VALID,12,VALID,0,
2016-04-13, 08:59:04,VALID,918.265,VALID,0,VALID,67.4444,VALID,505.403,VALID,26.3511,VALID,15,VALID,0,
2016-04-13, 09:00:04,VALID,918.312,VALID,0,VALID,64.5551,VALID,407.632,VALID,26.4683,VALID,25,VALID,0,
2016-04-13, 09:01:04,VALID,918.317,VALID,0,VALID,66.3847,VALID,341.233,VALID,26.5855,VALID,2,VALID,0.433984,
2016-04-13, 09:02:04,VALID,918.38,VALID,0,VALID,64.7152,VALID,489.609,VALID,26.6441,VALID,16,VALID,0.00195313,
2016-04-13, 09:03:04,VALID,918.352,VALID,0,VALID,64.9515,VALID,454.369,VALID,26.605,VALID,21,VALID,1.29609,
2016-04-13, 09:04:04,VALID,918.387,VALID,0,VALID,65.0582,VALID,507.552,VALID,26.5074,VALID,27,VALID,0.20625,
2016-04-13, 09:05:04,VALID,918.379,VALID,0,VALID,65.4775,VALID,533.445,VALID,26.4292,VALID,30,VALID,0,
2016-04-13, 09:06:04,VALID,918.389,VALID,0,VALID,66.3695,VALID,540.751,VALID,26.4683,VALID,20,VALID,0,
2016-04-13, 09:07:04,VALID,918.349,VALID,0,VALID,65.7443,VALID,540.107,VALID,26.5074,VALID,350,VALID,0,
2016-04-13, 09:08:04,VALID,918.381,VALID,0,VALID,66.9031,VALID,549.991,VALID,26.6441,VALID,360,VALID,0,
2016-04-13, 09:09:04,VALID,918.398,VALID,0,VALID,63.7927,VALID,555.686,VALID,26.8785,VALID,18,VALID,0,
2016-04-13, 09:10:04,VALID,918.422,VALID,0,VALID,64.799,VALID,551.925,VALID,26.9762,VALID,24,VALID,0,
2016-04-13, 09:11:04,VALID,918.422,VALID,0,VALID,64.7076,VALID,544.189,VALID,27.113,VALID,19,VALID,0,
2016-04-13, 09:12:04,VALID,918.471,VALID,0,VALID,63.099,VALID,544.942,VALID,27.0719,VALID,1,VALID,0,
2016-04-13, 09:13:04,VALID,918.443,VALID,0,VALID,62.8627,VALID,546.875,VALID,27.0132,VALID,22,VALID,0.715625,
2016-04-13, 09:14:04,VALID,918.517,VALID,0,VALID,66.3237,VALID,554.719,VALID,26.8374,VALID,9,VALID,0,
2016-04-13, 09:15:04,VALID,918.498,VALID,0,VALID,64.8829,VALID,572.124,VALID,26.6441,VALID,20,VALID,0.575781,
2016-04-13, 09:16:04,VALID,918.525,VALID,0,VALID,65.6452,VALID,577.604,VALID,26.564,VALID,3,VALID,0.0738281,
2016-04-13, 09:17:04,VALID,918.513,VALID,0,VALID,63.747,VALID,581.257,VALID,26.7007,VALID,359,VALID,0.0578125,
2016-04-13, 09:18:04,VALID,918.533,VALID,0,VALID,63.686,VALID,588.025,VALID,26.6246,VALID,276,VALID,0.538672,
2016-04-13, 09:19:04,VALID,918.513,VALID,0,VALID,67.1089,VALID,597.48,VALID,26.4468,VALID,165,VALID,0,
2016-04-13, 09:20:04,VALID,918.56,VALID,0,VALID,68.4735,VALID,601.885,VALID,26.605,VALID,75,VALID,0.0148437,
2016-04-13, 09:21:04,VALID,918.541,VALID,0,VALID,64.6237,VALID,603.927,VALID,26.7418,VALID,58,VALID,0.459766,
2016-04-13, 09:22:04,VALID,918.537,VALID,0,VALID,63.7623,VALID,613.489,VALID,26.7613,VALID,30,VALID,0.602734,
2016-04-13, 09:23:04,VALID,918.545,VALID,0,VALID,64.3188,VALID,615.315,VALID,26.5835,VALID,16,VALID,1.51563,
2016-04-13, 09:24:04,VALID,918.62,VALID,0,VALID,67.0022,VALID,616.39,VALID,26.4272,VALID,31,VALID,0.582812,
2016-04-13, 09:25:04,VALID,918.563,VALID,0,VALID,66.9107,VALID,623.911,VALID,26.4292,VALID,27,VALID,0.851563,
2016-04-13, 09:26:04,VALID,918.604,VALID,0,VALID,67.6121,VALID,627.241,VALID,26.5074,VALID,25,VALID,0.694531,
2016-04-13, 09:27:04,VALID,918.596,VALID,0,VALID,64.921,VALID,603.497,VALID,26.5269,VALID,15,VALID,1.76484,
2016-04-13, 09:28:04,VALID,918.682,VALID,0,VALID,66.8878,VALID,602.208,VALID,26.3902,VALID,26,VALID,0.0121094,
2016-04-13, 09:29:04,VALID,918.657,VALID,0,VALID,64.9591,VALID,631.324,VALID,26.4292,VALID,40,VALID,0,
2016-04-13, 09:30:04,VALID,918.649,VALID,0,VALID,65.3708,VALID,629.283,VALID,26.4663,VALID,284,VALID,0,
2016-04-13, 09:31:04,VALID,918.694,VALID,0,VALID,66.2399,VALID,645.721,VALID,26.6441,VALID,197,VALID,0,
2016-04-13, 09:32:04,VALID,918.67,VALID,0,VALID,63.8232,VALID,555.793,VALID,26.7223,VALID,217,VALID,0,
2016-04-13, 09:33:04,VALID,918.698,VALID,0,VALID,64.2044,VALID,649.697,VALID,26.6616,VALID,181,VALID,0,
2016-04-13, 09:34:04,VALID,918.759,VALID,0,VALID,64.7152,VALID,653.994,VALID,26.7788,VALID,115,VALID,0,
2016-04-13, 09:35:04,VALID,918.722,VALID,0,VALID,65.4699,VALID,659.259,VALID,26.9156,VALID,38,VALID,1.08867,
2016-04-13, 09:36:04,VALID,918.73,VALID,0,VALID,63.4268,VALID,654.317,VALID,27.0523,VALID,345,VALID,0.633984,
2016-04-13, 09:37:04,VALID,918.715,VALID,0,VALID,65.6376,VALID,629.82,VALID,26.9958,VALID,19,VALID,0,
2016-04-13, 09:38:04,VALID,918.701,VALID,0,VALID,64.6542,VALID,654.317,VALID,26.9937,VALID,13,VALID,0.288281,
2016-04-13, 09:39:04,VALID,918.703,VALID,0,VALID,64.395,VALID,624.126,VALID,27.0328,VALID,22,VALID,0.785547,
2016-04-13, 09:40:04,VALID,918.665,VALID,0,VALID,64.3645,VALID,644.862,VALID,26.9742,VALID,14,VALID,0.833594,
2016-04-13, 09:41:04,VALID,918.669,VALID,0,VALID,64.2959,VALID,657.11,VALID,26.7593,VALID,316,VALID,0.0632813,
2016-04-13, 09:42:04,VALID,918.677,VALID,0,VALID,66.4381,VALID,667.102,VALID,26.6616,VALID,32,VALID,0.0195313,
2016-04-13, 09:43:04,VALID,918.697,VALID,0,VALID,65.2183,VALID,648.192,VALID,26.7788,VALID,17,VALID,0,
2016-04-13, 09:44:04,VALID,918.69,VALID,0,VALID,65.5004,VALID,668.391,VALID,26.8765,VALID,9,VALID,0.0417969,
2016-04-13, 09:45:04,VALID,918.678,VALID,0,VALID,64.6847,VALID,730.385,VALID,26.8179,VALID,25,VALID,1.21367,
2016-04-13, 09:46:04,VALID,918.695,VALID,0,VALID,65.5538,VALID,687.946,VALID,26.7593,VALID,19,VALID,0.0273438,
2016-04-13, 09:47:04,VALID,918.706,VALID,0,VALID,65.5004,VALID,587.381,VALID,26.8374,VALID,5,VALID,0.0613281,
2016-04-13, 09:48:04,VALID,918.718,VALID,0,VALID,65.165,VALID,688.483,VALID,26.896,VALID,28,VALID,0.321094,
2016-04-13, 09:49:04,VALID,918.725,VALID,0,VALID,65.1268,VALID,740.484,VALID,27.0523,VALID,48,VALID,0,
2016-04-13, 09:50:04,VALID,918.727,VALID,0,VALID,62.6797,VALID,349.506,VALID,27.2261,VALID,37,VALID,0,
2016-04-13, 09:51:04,VALID,918.772,VALID,0,VALID,65.63,VALID,254.206,VALID,27.4235,VALID,9,VALID,0,
2016-04-13, 09:52:04,VALID,918.777,VALID,0,VALID,62.4205,VALID,371.102,VALID,27.4431,VALID,20,VALID,0,
2016-04-13, 09:53:04,VALID,918.759,VALID,0,VALID,62.9389,VALID,696.326,VALID,27.2672,VALID,31,VALID,0,
2016-04-13, 09:54:04,VALID,918.821,VALID,0,VALID,64.9439,VALID,696.434,VALID,27.15,VALID,44,VALID,0.000390625,
2016-04-13, 09:55:04,VALID,918.832,VALID,0,VALID,63.099,VALID,814.297,VALID,27.15,VALID,7,VALID,1.33125,
2016-04-13, 09:56:04,VALID,918.825,VALID,0,VALID,65.0125,VALID,829.875,VALID,27.1109,VALID,29,VALID,0.949219,
2016-04-13, 09:57:04,VALID,918.825,VALID,0,VALID,66.1941,VALID,444.591,VALID,27.1109,VALID,21,VALID,1.50078,
2016-04-13, 09:58:04,VALID,918.852,VALID,0,VALID,65.4318,VALID,798.073,VALID,27.1284,VALID,354,VALID,0.00585938,
2016-04-13, 09:59:04,VALID,918.856,VALID,0,VALID,66.5295,VALID,686.442,VALID,27.1695,VALID,12,VALID,0.329297,
2016-04-13, 10:00:04,VALID,918.828,VALID,0,VALID,68.1305,VALID,469.41,VALID,27.1284,VALID,338,VALID,0.103906,
2016-04-13, 10:01:04,VALID,918.875,VALID,0,VALID,66.6363,VALID,396.995,VALID,27.0893,VALID,18,VALID,0,
2016-04-13, 10:02:04,VALID,918.871,VALID,0,VALID,64.7914,VALID,294.926,VALID,26.9917,VALID,322,VALID,0.592188,
2016-04-13, 10:03:04,VALID,918.88,VALID,0,VALID,67.9246,VALID,600.274,VALID,26.896,VALID,17,VALID,0.209766,
2016-04-13, 10:04:04,VALID,918.838,VALID,0,VALID,66.2246,VALID,386.036,VALID,26.8159,VALID,5,VALID,0.509766,
2016-04-13, 10:05:04,VALID,918.816,VALID,0,VALID,66.7354,VALID,282.785,VALID,26.7377,VALID,26,VALID,0.657422,
2016-04-13, 10:06:04,VALID,918.798,VALID,0,VALID,67.4215,VALID,298.364,VALID,26.5033,VALID,47,VALID,1.11133,
2016-04-13, 10:07:04,VALID,918.811,VALID,0,VALID,69.5332,VALID,310.505,VALID,26.3666,VALID,20,VALID,0,
2016-04-13, 10:08:04,VALID,918.78,VALID,0,VALID,67.2614,VALID,337.365,VALID,26.269,VALID,299,VALID,0.193359,
2016-04-13, 10:09:04,VALID,918.777,VALID,0,VALID,67.856,VALID,360.035,VALID,26.1908,VALID,35,VALID,1.82187,
2016-04-13, 10:10:04,VALID,918.836,VALID,0,VALID,71.1875,VALID,337.795,VALID,26.0932,VALID,59,VALID,0.239063,
2016-04-13, 10:11:04,VALID,918.835,VALID,0,VALID,70.1735,VALID,367.771,VALID,26.1928,VALID,25,VALID,0.372266,
2016-04-13, 10:12:04,VALID,918.856,VALID,0,VALID,68.0314,VALID,433.418,VALID,26.0541,VALID,331,VALID,1.26328,
2016-04-13, 10:13:04,VALID,918.801,VALID,0,VALID,71.4009,VALID,659.151,VALID,25.8608,VALID,24,VALID,0.1125,
2016-04-13, 10:14:04,VALID,918.834,VALID,0,VALID,71.9803,VALID,492.618,VALID,25.8393,VALID,14,VALID,0.277344,
2016-04-13, 10:15:04,VALID,918.816,VALID,0,VALID,70.5776,VALID,683.97,VALID,25.8979,VALID,36,VALID,0,
2016-04-13, 10:16:04,VALID,918.812,VALID,0,VALID,70.913,VALID,626.597,VALID,26.0346,VALID,302,VALID,0,
2016-04-13, 10:17:04,VALID,918.78,VALID,0,VALID,69.0377,VALID,843.843,VALID,26.269,VALID,328,VALID,0,
2016-04-13, 10:18:04,VALID,918.763,VALID,0,VALID,70.1202,VALID,849.752,VALID,26.5229,VALID,342,VALID,0,
2016-04-13, 10:19:04,VALID,918.773,VALID,0,VALID,68.2372,VALID,838.363,VALID,26.7593,VALID,176,VALID,0,
2016-04-13, 10:20:04,VALID,918.751,VALID,0,VALID,67.2995,VALID,849.967,VALID,26.9917,VALID,154,VALID,0,
2016-04-13, 10:21:04,VALID,918.764,VALID,0,VALID,66.8421,VALID,804.949,VALID,27.3238,VALID,4,VALID,0,
2016-04-13, 10:22:04,VALID,918.771,VALID,0,VALID,66.804,VALID,873.711,VALID,27.5408,VALID,34,VALID,0,
2016-04-13, 10:23:04,VALID,918.764,VALID,0,VALID,65.4547,VALID,795.494,VALID,27.7731,VALID,356,VALID,0.046875,
2016-04-13, 10:24:04,VALID,918.783,VALID,0,VALID,64.2883,VALID,837.181,VALID,27.9706,VALID,356,VALID,0.125,
2016-04-13, 10:25:04,VALID,918.761,VALID,0,VALID,62.4434,VALID,881.555,VALID,27.949,VALID,58,VALID,0,
2016-04-13, 10:26:04,VALID,918.776,VALID,0,VALID,62.8474,VALID,589.315,VALID,28.1248,VALID,54,VALID,0,
2016-04-13, 10:27:04,VALID,918.797,VALID,0,VALID,62.8779,VALID,685.367,VALID,28.1248,VALID,17,VALID,1.53242,
2016-04-13, 10:28:04,VALID,918.783,VALID,0,VALID,62.6035,VALID,975.458,VALID,27.9685,VALID,15,VALID,0.414453,
2016-04-13, 10:29:04,VALID,918.831,VALID,0,VALID,65.7977,VALID,482.303,VALID,27.7536,VALID,351,VALID,0.936719,
2016-04-13, 10:30:04,VALID,918.748,VALID,0,VALID,64.6618,VALID,920.986,VALID,27.48,VALID,26,VALID,2.18477,
2016-04-13, 10:31:04,VALID,918.75,VALID,0,VALID,67.6959,VALID,425.36,VALID,27.2847,VALID,45,VALID,2.42578,
2016-04-13, 10:32:04,VALID,918.77,VALID,0,VALID,66.034,VALID,348.324,VALID,27.187,VALID,52,VALID,0.854688,
2016-04-13, 10:33:04,VALID,918.789,VALID,0,VALID,68.748,VALID,567.397,VALID,27.1109,VALID,23,VALID,0,
2016-04-13, 10:34:04,VALID,918.751,VALID,0,VALID,69.9906,VALID,778.733,VALID,27.0893,VALID,357,VALID,0.244922,
2016-04-13, 10:35:04,VALID,918.723,VALID,0,VALID,67.8103,VALID,728.881,VALID,27.1695,VALID,360,VALID,0.0125,
2016-04-13, 10:36:04,VALID,918.732,VALID,0,VALID,66.9412,VALID,911.101,VALID,27.2651,VALID,11,VALID,0.0613281,
2016-04-13, 10:37:04,VALID,918.683,VALID,0,VALID,67.795,VALID,957.945,VALID,27.5387,VALID,29,VALID,0.834375,
2016-04-13, 10:38:04,VALID,918.702,VALID,0,VALID,65.5309,VALID,1048.2,VALID,27.8122,VALID,14,VALID,0.719141,
2016-04-13, 10:39:04,VALID,918.688,VALID,0,VALID,65.5309,VALID,465.435,VALID,27.7927,VALID,3,VALID,1.38437,
2016-04-13, 10:40:04,VALID,918.681,VALID,0,VALID,65.8511,VALID,603.712,VALID,27.6168,VALID,20,VALID,0.355469,
2016-04-13, 10:41:04,VALID,918.652,VALID,0,VALID,65.8282,VALID,406.128,VALID,27.517,VALID,346,VALID,0.162109,
2016-04-13, 10:42:04,VALID,918.595,VALID,0,VALID,65.691,VALID,400.433,VALID,27.2065,VALID,22,VALID,1.47812,
2016-04-13, 10:43:04,VALID,918.557,VALID,0,VALID,68.9081,VALID,375.077,VALID,26.8549,VALID,22,VALID,0,
2016-04-13, 10:44:04,VALID,918.553,VALID,0,VALID,70.7148,VALID,378.73,VALID,26.7377,VALID,19,VALID,0.984766,
2016-04-13, 10:45:04,VALID,918.576,VALID,0,VALID,70.5776,VALID,395.706,VALID,26.7573,VALID,28,VALID,0.845703,
2016-04-13, 10:46:04,VALID,918.562,VALID,0,VALID,70.5928,VALID,952.143,VALID,26.7573,VALID,24,VALID,1.56602,
2016-04-13, 10:47:04,VALID,918.565,VALID,0,VALID,69.0529,VALID,1023.16,VALID,26.894,VALID,47,VALID,0.164844,
2016-04-13, 10:48:04,VALID,918.561,VALID,0,VALID,70.4175,VALID,712.442,VALID,27.187,VALID,27,VALID,2.60117,
2016-04-13, 10:49:04,VALID,918.544,VALID,0,VALID,67.4367,VALID,587.596,VALID,27.4214,VALID,307,VALID,0.0882813,
2016-04-13, 10:50:04,VALID,918.551,VALID,0,VALID,67.2462,VALID,336.506,VALID,27.3238,VALID,33,VALID,0.535937,
2016-04-13, 10:51:04,VALID,918.523,VALID,0,VALID,67.3681,VALID,305.455,VALID,27.2261,VALID,31,VALID,0.346875,
2016-04-13, 10:52:04,VALID,918.572,VALID,0,VALID,69.274,VALID,280.959,VALID,27.187,VALID,21,VALID,0.673047,
2016-04-13, 10:53:04,VALID,918.567,VALID,0,VALID,67.7112,VALID,261.727,VALID,27.0893,VALID,12,VALID,0.0148437,
2016-04-13, 10:54:04,VALID,918.492,VALID,0,VALID,68.7785,VALID,254.528,VALID,27.0307,VALID,10,VALID,0,